Volver al catálogo

CZ-6A DEB

ActivoSSO
NORAD 56261·DEBRIS·🇨🇳 China

Lanzado Nov 11, 2022 desde Taiyuan Satellite Launch Center

Loading…

Próximos Pases (próximas 24 horas)

TLE

ActualizadoSource: Space-Track

Época: Sep 14, 2026, 01:16 UTC

1 56261U 22151ACD 26257.05313228  .00005050  00000-0  17650-2 0  9998
2 56261  98.7981 280.3836 0038225  32.4695 327.8830 14.35237081184742

Sigue CZ-6A DEB en tiempo real con AllMySat

Download on the App Store